Showing default

PNEO4, 49070

Orbit data source: Space-Track

PNEO4, 49070 is a payload satellite owned by ADS Intelligence (FR) in SSO that was launched on Tue, 17 Aug 2021 UTC via a VEGA launch vehicle from the French Guiana (FRGUI). Payload-class satellites include a variety of spacecraft equipped with specific instruments for various scientific and technological missions. These include communications satellites like Starlink; space stations such as the ISS; scientific satellites like the Hubble; Earth observation satellites from companies like Planet Labs, Umbra, and HawkEye 360; GPS; miniature CubeSats for education and research; and military/defense satellites.

Loading next visibility...
Identifier
49070, 2021-073E
Orbit
SSO
Country
Flag of FRFR
Related business
Manufacturer
Airbus/Toulouse
Mission
Operational Commercial Imaging
Bus & Motor
ASTROBUS-M COM., Unknown motor
Mass
922 kg wet, ~895 kg dry
Launch date (UTC)
2021-08-17 (5 years ago)
Launch vehicle
VEGA
Launch site
French Guiana (FRGUI)
Object type
Payload
Rocket body
Debris
Shape & HBR
Hex Cyl + 3 Pan, 4.6 m
Radar Cross Section
12.145 m², Large (>1 m²)

Expand to show TLE details & history
Last TLE update: 23 hours ago

TLE from 23 hours ago
0 PNEO4
1 49070U 21073E   26172.47391263  .00000439  00000-0  62438-4 0  9999
2 49070  97.8929 247.1755 0001341  88.1718 271.9648 14.81669156262003
Epoch: 2026-06-21T11:22Z
TLE epoch observation values (Epoch: 2026-06-21T11:22:26.051Z)
Latitude
-0.00005°
Longitude
166.89329°
Altitude
627.052 km
Speed
7.545 km/s
True Right ascension
16h 28m 42s
True Declination
0° 00' 00"
Sunlit
Object was in full shadow at epoch
Visualization orbit readout
Latitude
Unknown
Longitude
Unknown
Altitude
Unknown
Speed
Unknown
Apparent Right ascension
Unknown
Apparent Declination
Unknown
Sunlit
N/A
Visualization observer readout
Local Sidereal Time
21:25:44
Azimuth
Unknown
Elevation
Unknown
Doppler factor
Unknown
Orbital elements
Apogee altitude
622.037 km
Perigee altitude
620.16 km
Semi-major axis
6,999.236 km
Eccentricity
0.00013
Inclination
97.8929°
RAAN
247.1755°
Arg. of periapsis
88.1718°
True anomaly
271.94944°
Mean anomaly
271.9648°
Eccentric anomaly
271.95712°
Mean motion
3.70653 °/min
Orbital period
97.13 mins
BSTAR
0.000062438
Loading maneuver chart data...
Computing Atmospheric mass density...
Loading historical data...
Loading historical data...
Loading historical data...
Loading historical data...
Loading historical data...
Loading historical data...
Loading historical data...
Other satellites on launch #73 in the year 2021 (2021-08-17 UTC)

Documentation

Showing up to 5 results
|